Weather History for Delaware, OH

Change the Weather History Date:

Sunday, January 20, 2013

  Actual Average Record
Temperature  
Mean Temperature 32 °F -  
Max Temperature 42 °F 33 °F 59 °F (1951)
Min Temperature 23 °F 14 °F -18 °F (1985)
Degree Days  
Heating Degree Days 32    
Moisture  
Dew Point 19 °F    
Average Humidity 63    
Maximum Humidity 74    
Minimum Humidity 51    
Precipitation  
Precipitation 0.00 in - - ()
Sea Level Pressure  
Sea Level Pressure 30.06 in    
Wind  
Wind Speed 15 mph (WNW)    
Max Wind Speed 25 mph    
Max Gust Speed 39 mph    
Visibility 10 miles    
Events      
Averages and records for this station are not official NWS values.
T = Trace of Precipitation, MM = Missing Value Source: NWS Daily Summary

Daily Weather History Graph

Daily Weather History Graph

Search for Another Location

Airport:

Trip Planner

Search our weather history database for the weather conditions in past years. The results will help you decide how hot, cold, wet, or windy it might be!

Date:

Astronomy

Jan. 20, 2013 Rise Set
Actual Time 7:50 AM EST 5:36 PM EST
Civil Twilight 7:21 AM EST 6:06 PM EST
Nautical Twilight 6:47 AM EST 6:39 PM EST
Astronomical Twilight 6:15 AM EST 7:12 PM EST
Moon 12:37 PM EST (1/20) 2:21 AM EST (1/20)
Length of Visible Light 10h 45m
Length of Day
9h 46m
Waxing Gibbous, 66% of the Moon is Illuminated
Jan 20
Waxing Gibbous
Jan 26
Full
Feb 3
Last Quarter
Feb 10
New
Feb 17
First Quarter

Hourly Weather History & Observations

Time (EST) Temp. Windchill Dew Point Humidity Pressure Visibility Wind Dir Wind Speed Gust Speed Precip Events Conditions
12:03 AM 39.2 °F 31.6 °F 28.4 °F 65% 29.83 in 10.0 mi SW 12.7 mph - N/A   Clear
12:23 AM 41.0 °F 33.9 °F 28.4 °F 61% 29.82 in 10.0 mi SW 12.7 mph 19.6 mph N/A   Clear
12:42 AM 42.8 °F 35.4 °F 30.2 °F 61% 29.82 in 10.0 mi SW 15.0 mph 25.3 mph N/A   Clear
1:03 AM 42.8 °F 35.1 °F 30.2 °F 61% 29.82 in 10.0 mi SW 16.1 mph 24.2 mph N/A   Clear
1:23 AM 42.8 °F 34.8 °F 30.2 °F 61% 29.82 in 10.0 mi SW 17.3 mph 23.0 mph N/A   Clear
1:43 AM 42.8 °F 35.1 °F 32.0 °F 66% 29.81 in 10.0 mi SW 16.1 mph 25.3 mph N/A   Clear
2:03 AM 42.8 °F 35.1 °F 32.0 °F 66% 29.81 in 10.0 mi SW 16.1 mph 24.2 mph N/A   Clear
2:23 AM 42.8 °F 35.4 °F 32.0 °F 66% 29.82 in 10.0 mi WSW 15.0 mph 19.6 mph N/A   Clear
2:43 AM 42.8 °F 34.5 °F 32.0 °F 66% 29.83 in 10.0 mi WSW 18.4 mph 24.2 mph N/A   Scattered Clouds
3:03 AM 42.8 °F 34.8 °F 32.0 °F 66% 29.85 in 10.0 mi West 17.3 mph 26.5 mph N/A   Mostly Cloudy
3:23 AM 42.8 °F 35.4 °F 32.0 °F 66% 29.87 in 10.0 mi West 15.0 mph 26.5 mph N/A   Overcast
3:43 AM 41.0 °F 31.1 °F 30.2 °F 65% 29.87 in 10.0 mi West 23.0 mph 33.4 mph N/A   Overcast
4:03 AM 39.2 °F 30.2 °F 30.2 °F 70% 29.88 in 10.0 mi West 17.3 mph 38.0 mph N/A   Scattered Clouds
4:23 AM 37.4 °F 27.2 °F 28.4 °F 70% 29.88 in 10.0 mi West 19.6 mph 29.9 mph N/A   Clear
4:43 AM 37.4 °F 25.9 °F 26.6 °F 65% 29.89 in 10.0 mi West 25.3 mph 39.1 mph N/A   Clear
5:03 AM 35.6 °F 27.1 °F 26.6 °F 70% 29.90 in 10.0 mi West 12.7 mph 24.2 mph N/A   Scattered Clouds
5:23 AM 35.6 °F 24.0 °F 24.8 °F 65% 29.91 in 10.0 mi West 23.0 mph 33.4 mph N/A   Scattered Clouds
5:43 AM 33.8 °F 22.2 °F 19.4 °F 56% 29.93 in 10.0 mi West 20.7 mph 32.2 mph N/A   Clear
6:03 AM 32.0 °F 18.9 °F 17.6 °F 55% 29.94 in 10.0 mi WNW 24.2 mph 34.5 mph N/A   Clear
6:22 AM 32.0 °F 18.9 °F 15.8 °F 51% 29.96 in 10.0 mi WNW 24.2 mph 32.2 mph N/A   Clear
6:43 AM 30.2 °F 18.1 °F 17.6 °F 60% 29.98 in 10.0 mi WNW 18.4 mph 27.6 mph N/A   Clear
7:22 AM 28.4 °F 16.6 °F 17.6 °F 64% 30.01 in 10.0 mi WNW 16.1 mph 24.2 mph N/A   Clear
7:43 AM 28.4 °F 14.7 °F 17.6 °F 64% 30.03 in 10.0 mi WNW 21.9 mph 28.8 mph N/A   Clear
8:03 AM 28.4 °F 14.4 °F 17.6 °F 64% 30.04 in 10.0 mi WNW 23.0 mph 27.6 mph N/A   Clear
8:22 AM 28.4 °F 16.2 °F 17.6 °F 64% 30.06 in 10.0 mi West 17.3 mph 26.5 mph N/A   Scattered Clouds
8:43 AM 26.6 °F 13.1 °F 14.0 °F 59% 30.08 in 10.0 mi WNW 19.6 mph 25.3 mph N/A   Scattered Clouds
9:03 AM 26.6 °F 13.4 °F 15.8 °F 64% 30.09 in 10.0 mi WNW 18.4 mph 25.3 mph N/A   Clear
9:22 AM 26.6 °F 12.0 °F 14.0 °F 59% 30.10 in 10.0 mi WNW 23.0 mph 28.8 mph N/A   Scattered Clouds
9:43 AM 26.6 °F 12.4 °F 14.0 °F 59% 30.12 in 10.0 mi WNW 21.9 mph - N/A   Scattered Clouds
10:03 AM 26.6 °F 13.4 °F 15.8 °F 64% 30.13 in 10.0 mi WNW 18.4 mph 28.8 mph N/A   Scattered Clouds
10:23 AM 26.6 °F 13.1 °F 14.0 °F 59% 30.15 in 10.0 mi WNW 19.6 mph 26.5 mph N/A   Overcast
10:43 AM 26.6 °F 14.3 °F 14.0 °F 59% 30.16 in 10.0 mi WNW 16.1 mph 21.9 mph N/A   Overcast
11:03 AM 28.4 °F 16.6 °F 14.0 °F 55% 30.17 in 10.0 mi NW 16.1 mph 25.3 mph N/A   Mostly Cloudy
11:23 AM 28.4 °F 16.2 °F 14.0 °F 55% 30.17 in 10.0 mi NW 17.3 mph 24.2 mph N/A   Scattered Clouds
11:43 AM 28.4 °F 17.0 °F 17.6 °F 64% 30.18 in 10.0 mi NW 15.0 mph 23.0 mph N/A   Mostly Cloudy
12:03 PM 26.6 °F 13.1 °F 14.0 °F 59% 30.17 in 10.0 mi WNW 19.6 mph - N/A   Mostly Cloudy
12:23 PM 26.6 °F 15.7 °F 14.0 °F 59% 30.17 in 10.0 mi WNW 12.7 mph 19.6 mph N/A   Mostly Cloudy
12:43 PM 26.6 °F 14.7 °F 14.0 °F 59% 30.17 in 10.0 mi WNW 15.0 mph 20.7 mph N/A   Mostly Cloudy
1:23 PM 28.4 °F 20.4 °F 14.0 °F 55% 30.16 in 10.0 mi WNW 8.1 mph - N/A   Mostly Cloudy
2:02 PM 26.6 °F 19.1 °F 15.8 °F 64% 30.15 in 10.0 mi WNW 6.9 mph - N/A   Mostly Cloudy
2:23 PM 28.4 °F 19.1 °F 15.8 °F 59% 30.15 in 10.0 mi NW 10.4 mph 16.1 mph N/A   Scattered Clouds
2:43 PM 28.4 °F 19.7 °F 15.8 °F 59% 30.14 in 10.0 mi NW 9.2 mph - N/A   Scattered Clouds
3:02 PM 28.4 °F 17.0 °F 15.8 °F 59% 30.15 in 10.0 mi WNW 15.0 mph 18.4 mph N/A   Mostly Cloudy
3:23 PM 28.4 °F 21.2 °F 14.0 °F 55% 30.15 in 10.0 mi West 6.9 mph - N/A   Scattered Clouds
3:43 PM 28.4 °F 18.5 °F 14.0 °F 55% 30.16 in 10.0 mi West 11.5 mph - N/A   Scattered Clouds
4:02 PM 28.4 °F 18.0 °F 14.0 °F 55% 30.17 in 10.0 mi West 12.7 mph 17.3 mph N/A   Scattered Clouds
4:23 PM 28.4 °F 19.1 °F 14.0 °F 55% 30.16 in 10.0 mi WNW 10.4 mph 16.1 mph N/A   Clear
4:43 PM 26.6 °F 16.8 °F 14.0 °F 59% 30.17 in 10.0 mi WNW 10.4 mph - N/A   Clear
5:02 PM 26.6 °F 15.2 °F 14.0 °F 59% 30.17 in 10.0 mi WNW 13.8 mph - N/A   Mostly Cloudy
5:23 PM 26.6 °F 16.8 °F 15.8 °F 64% 30.17 in 10.0 mi WNW 10.4 mph - N/A   Overcast
5:43 PM 24.8 °F 15.3 °F 14.0 °F 64% 30.17 in 10.0 mi WNW 9.2 mph 16.1 mph N/A   Mostly Cloudy
6:03 PM 24.8 °F 15.3 °F 14.0 °F 64% 30.17 in 10.0 mi WNW 9.2 mph - N/A   Scattered Clouds
6:23 PM 23.0 °F 14.7 °F 14.0 °F 68% 30.17 in 10.0 mi West 6.9 mph - N/A   Scattered Clouds
6:43 PM 23.0 °F 14.7 °F 14.0 °F 68% 30.18 in 10.0 mi West 6.9 mph - N/A   Mostly Cloudy
7:03 PM 23.0 °F 15.8 °F 14.0 °F 68% 30.18 in 10.0 mi WNW 5.8 mph - N/A   Scattered Clouds
7:23 PM 23.0 °F 14.7 °F 14.0 °F 68% 30.18 in 10.0 mi WNW 6.9 mph - N/A   Scattered Clouds
8:03 PM 23.0 °F 15.8 °F 14.0 °F 68% 30.18 in 10.0 mi West 5.8 mph - N/A   Scattered Clouds
8:23 PM 23.0 °F 17.0 °F 15.8 °F 74% 30.18 in 10.0 mi West 4.6 mph - N/A   Scattered Clouds
8:43 PM 23.0 °F 15.8 °F 15.8 °F 74% 30.17 in 10.0 mi WNW 5.8 mph - N/A   Clear
9:03 PM 23.0 °F 13.9 °F 14.0 °F 68% 30.17 in 10.0 mi WNW 8.1 mph - N/A   Clear
9:23 PM 23.0 °F 14.7 °F 14.0 °F 68% 30.16 in 10.0 mi WNW 6.9 mph - N/A   Mostly Cloudy
9:43 PM 23.0 °F 13.9 °F 14.0 °F 68% 30.16 in 10.0 mi WNW 8.1 mph - N/A   Overcast
10:03 PM 23.0 °F 14.7 °F 15.8 °F 74% 30.15 in 10.0 mi WNW 6.9 mph - N/A   Overcast
10:23 PM 23.0 °F 14.7 °F 14.0 °F 68% 30.15 in 10.0 mi West 6.9 mph - N/A   Overcast
10:42 PM 23.0 °F 13.1 °F 14.0 °F 68% 30.15 in 10.0 mi WNW 9.2 mph - N/A   Overcast
11:03 PM 23.0 °F 14.7 °F 14.0 °F 68% 30.15 in 10.0 mi WNW 6.9 mph - N/A   Overcast
11:23 PM 23.0 °F 15.8 °F 14.0 °F 68% 30.15 in 10.0 mi NNW 5.8 mph - N/A   Overcast
11:42 PM 23.0 °F 14.7 °F 14.0 °F 68% 30.15 in 10.0 mi NW 6.9 mph - N/A   Overcast